EW1514 Weather Reports


time (UTC)temp
C
wind
direction
speed
KPH
gust
KPH
rain 1hr
cm
rain 24hr
cm
rain mn
cm
humidity
%
barometer
mb
20260506153113 22 228 6.4 14.5 0.00 0.00 0.00 53 1013.8
20260506151557 23 238 4.8 14.5 0.00 0.00 0.00 52 1013.8
20260506144558 23 286 4.8 14.5 0.00 0.00 0.00 51 1013.8
20260506143054 23 234 9.7 17.7 0.00 0.00 0.00 47 1013.9
20260506141548 24 227 4.8 16.1 0.00 0.00 0.00 47 1013.9
20260506140044 24 232 6.4 19.3 0.00 0.00 0.00 48 1014.0
20260506134541 24 217 8.0 17.7 0.00 0.00 0.00 45 1013.9
20260506133039 24 223 6.4 17.7 0.00 0.00 0.00 45 1014.0
20260506131541 25 209 6.4 14.5 0.00 0.00 0.00 43 1014.2
20260506130037 25 162 6.4 12.9 0.00 0.00 0.00 44 1014.2
20260506124535 25 221 6.4 17.7 0.00 0.00 0.00 42 1014.4
20260506123034 25 183 4.8 12.9 0.00 0.00 0.00 43 1014.5
20260506121533 25 181 6.4 17.7 0.00 0.00 0.00 44 1014.6
20260506120037 24 165 6.4 17.7 0.00 0.00 0.00 45 1014.7
20260506114531 24 229 9.7 19.3 0.00 0.00 0.00 44 1014.9
20260506113038 24 188 6.4 12.9 0.00 0.00 0.00 44 1014.9
20260506111510 24 169 4.8 14.5 0.00 0.00 0.00 43 1015.1
20260506110011 24 233 9.7 17.7 0.00 0.00 0.00 40 1015.1
20260506104506 24 238 9.7 17.7 0.00 0.00 0.00 40 1015.0
20260506103008 24 196 6.4 17.7 0.00 0.00 0.00 41 1015.1
20260506101502 24 205 8.0 17.7 0.00 0.00 0.00 41 1015.2
20260506100001 24 200 6.4 19.3 0.00 0.00 0.00 40 1015.4
20260506094601 24 207 8.0 16.1 0.00 0.00 0.00 37 1015.5
20260506093055 23 250 3.2 12.9 0.00 0.00 0.00 37 1015.4
20260506091558 23 217 4.8 11.3 0.00 0.00 0.00 40 1015.6
20260506090056 23 217 6.4 11.3 0.00 0.00 0.00 39 1015.6
20260506084550 22 221 4.8 16.1 0.00 0.00 0.00 43 1015.6
20260506083041 22 222 9.7 12.9 0.00 0.00 0.00 45 1015.4
20260506081537 22 229 6.4 14.5 0.00 0.00 0.00 49 1015.4
20260506073026 22 252 4.8 11.3 0.00 0.00 0.00 47 1015.3
20260506071522 21 228 0.0 6.4 0.00 0.00 0.00 50 1015.2
20260506061506 18 280 0.0 3.2 0.00 0.00 0.00 57 1015.5
20260506050104 15 336 0.0 1.6 0.00 0.00 0.00 67 1015.5
20260506044554 15 96 0.0 3.2 0.00 0.00 0.00 68 1015.5
20260506043048 13 73 0.0 0.0 0.00 0.00 0.00 71 1015.4
20260506041544 13 73 0.0 3.2 0.00 0.00 0.00 71 1015.3
20260506040029 12 73 0.0 0.0 0.00 0.00 0.00 71 1015.1
20260506034528 13 73 0.0 0.0 0.00 0.00 0.00 70 1014.9
20260506033014 13 73 0.0 0.0 0.00 0.00 0.00 69 1014.9
20260506031513 13 73 0.0 3.2 0.00 0.00 0.00 69 1014.9
20260506030026 13 66 1.6 6.4 0.00 0.00 0.00 68 1014.8
20260506024520 13 98 0.0 0.0 0.00 0.00 0.00 67 1014.9
20260506023047 13 148 0.0 0.0 0.00 0.00 0.00 68 1014.8
20260506021544 13 173 0.0 0.0 0.00 0.00 0.00 66 1014.9
20260506020043 13 173 0.0 0.0 0.00 0.00 0.00 65 1014.9
20260506014540 14 215 0.0 0.0 0.00 0.00 0.00 66 1014.7
20260506013053 14 215 0.0 0.0 0.00 0.00 0.00 63 1014.7
20260506011535 15 213 0.0 0.0 0.00 0.00 0.00 61 1014.7
20260506010032 15 196 0.0 3.2 0.00 0.00 0.00 61 1014.7
20260506004532 15 195 1.6 4.8 0.00 0.00 0.00 59 1014.6
20260506003033 16 92 0.0 0.0 0.00 0.00 0.00 58 1014.5
20260506001526 16 92 0.0 3.2 0.00 0.00 0.00 58 1014.5
20260506000022 16 80 0.0 0.0 0.00 0.00 0.00 57 1014.4
20260505234527 16 80 0.0 3.2 0.00 0.00 0.00 56 1014.4
20260505233021 16 328 0.0 3.2 0.00 0.00 0.00 56 1014.4
20260505231519 17 328 0.0 3.2 0.00 0.00 0.00 56 1014.5
20260505230034 17 25 0.0 1.6 0.00 0.00 0.00 56 1014.4
20260505224515 17 321 1.6 4.8 0.00 0.00 0.00 56 1014.5
20260505223014 17 211 0.0 1.6 0.00 0.00 0.00 56 1014.6
20260505221512 17 240 0.0 4.8 0.00 0.00 0.00 57 1014.4
20260505220010 17 222 0.0 6.4 0.00 0.00 0.00 56 1014.3
20260505214510 17 126 0.0 8.0 0.00 0.00 0.00 56 1014.3
20260505213007 17 196 1.6 6.4 0.00 0.00 0.00 57 1014.2
20260505211506 18 242 0.0 6.4 0.00 0.00 0.00 58 1014.2
20260505210004 18 71 1.6 16.1 0.00 0.00 0.00 58 1014.1
20260505204504 18 133 6.4 17.7 0.00 0.00 0.00 59 1014.0
20260505203002 18 51 4.8 17.7 0.00 0.00 0.00 58 1014.0
20260505201504 18 84 3.2 14.5 0.00 0.00 0.00 56 1013.9
20260505200005 18 93 3.2 16.1 0.00 0.00 0.00 56 1013.7
20260505194614 18 111 1.6 6.4 0.00 0.00 0.00 52 1013.6
20260505193059 19 65 0.0 0.0 0.00 0.00 0.00 48 1013.5
20260505191601 19 65 0.0 4.8 0.00 0.00 0.00 47 1013.3
20260505190058 20 82 0.0 4.8 0.00 0.00 0.00 47 1013.2
20260505184558 20 74 1.6 6.4 0.00 0.00 0.00 46 1013.0
20260505183102 21 85 0.0 8.0 0.00 0.00 0.00 43 1013.0
20260505181557 21 60 3.2 9.7 0.00 0.00 0.00 37 1012.8
20260505180058 22 57 1.6 6.4 0.00 0.00 0.00 37 1012.7
20260505174559 22 51 0.0 4.8 0.00 0.00 0.00 36 1012.5
20260505173056 23 165 0.0 3.2 0.00 0.00 0.00 34 1012.5
20260505171555 23 180 0.0 4.8 0.00 0.00 0.00 34 1012.4
20260505170054 24 192 1.6 12.9 0.00 0.00 0.00 33 1012.4
20260505164601 24 158 1.6 12.9 0.00 0.00 0.00 33 1012.4
20260505163059 25 193 6.4 16.1 0.00 0.00 0.00 32 1012.4
20260505161552 25 241 8.0 16.1 0.00 0.00 0.00 31 1012.3